Stations météo

réclame
Mon MeteoGroup
Schleswig, Allemagne (10035): Température de l'air & dewpoint: 09.09.2019 12:00:00 - 15.09.2019 12:00:00 (CEST)Schleswig, Allemagne (10035): Température de l'air 5cm & Température de l'air -5cm: 09.09.2019 12:00:00 - 15.09.2019 12:00:00 (CEST)Schleswig, Allemagne (10035): Température de l'air -20cm & Température de l'air -100cm: 09.09.2019 12:00:00 - 15.09.2019 12:00:00 (CEST)Schleswig, Allemagne (10035): Vitesse du vent & gusts: 09.09.2019 12:00:00 - 15.09.2019 12:00:00 (CEST)Schleswig, Allemagne (10035): Direction du vent: 09.09.2019 12:00:00 - 15.09.2019 12:00:00 (CEST)Schleswig, Allemagne (10035): reduced air pressure: 09.09.2019 12:00:00 - 15.09.2019 12:00:00 (CEST)Schleswig, Allemagne (10035): visibility: 09.09.2019 12:00:00 - 15.09.2019 12:00:00 (CEST)Schleswig, Allemagne (10035): Ensoleillement: 09.09.2019 12:00:00 - 15.09.2019 12:00:00 (CEST)Schleswig, Allemagne (10035): Quantités de précipitations: 09.09.2019 12:00:00 - 15.09.2019 12:00:00 (CEST)
Date & Time tt [°C] td [°C] tt 5cm [°C] tt -5cm [°C] tt -20cm [°C] tt -100cm [°C] ff [km/h] ff [knt] fx [km/h] fx [knt] dd ppp [hPa] vv [km] sd [min] rr [mm]
15.09.2019 12:00:00 16,1 14,5 15,6 15,5 14,5 16,1 22 12 47 25 W 1016,3 3,0 0 0,0
15.09.2019 11:00:00 15,8 14,8 15,8 14,9 14,3 16,1 18 10 48 26 W 1016,3 3,2 0 0,0
15.09.2019 10:00:00 15,1 13,9 14,8 13,8 14,3 16,1 16 9 41 22 WSW 1016,2 16 0 0,0
15.09.2019 09:00:00 14,5 12,1 14,6 12,9 14,3 16,1 17 9 37 20 WSW 1016,8 22 0 0,0
15.09.2019 08:00:00 13,3 10,5 12,5 11,6 14,4 16,1 17 9 33 18 SW 1017,1 30 0 0,0
15.09.2019 07:00:00 11,9 9,5 10,9 11,1 14,6 16,1 15 8 29 16 SW 1017,7 30 0 0,0
15.09.2019 06:00:00 11,2 9,2 10,4 11,2 14,8 16,1 19 10 32 17 SSW 1018,2 25 0 0,0
15.09.2019 05:00:00 11,6 9,4 10,8 11,5 15,0 16,1 17 9 39 21 SSW 1019,5 36 0 0,0
15.09.2019 04:00:00 12,2 9,4 11,4 11,7 15,2 16,1 18 10 32 18 SW 1020,6 49 0 0,0
15.09.2019 03:00:00 11,7 9,1 10,9 11,7 15,4 16,1 16 8 32 17 SW 1021,7 39 0 0,0
15.09.2019 02:00:00 11,6 8,9 10,7 12,0 15,6 16,1 16 9 29 16 SSW 1023,0 41 0 0,0
15.09.2019 01:00:00 12,0 9,4 11,1 12,3 15,9 16,1 15 8 33 18 SW 1024,2 36 0 0,0
15.09.2019 00:00:00 12,3 9,4 11,4 12,6 16,2 16,1 15 8 27 15 SW 1025,5 42 0 0,0
14.09.2019 23:00:00 12,2 9,4 11,3 12,9 16,5 16,1 15 8 23 12 SSW 1026,2 41 0 0,0
14.09.2019 22:00:00 12,2 9,1 11,2 13,4 16,8 16,1 13 7 21 12 SSW 1027,3 32 0 0,0
14.09.2019 21:00:00 12,5 9,0 11,4 14,2 17,1 16,1 11 6 18 10 SW 1028,2 47 0 0,0
14.09.2019 20:00:00 13,3 9,0 12,2 15,3 17,4 16,1 9 5 20 11 SW 1028,9 52 0 0,0
14.09.2019 19:00:00 14,3 9,4 13,1 16,7 17,5 16,1 9 5 24 13 WSW 1029,3 55 25 0,0
14.09.2019 18:00:00 16,1 9,0 15,7 18,7 17,4 16,1 13 7 29 15 WSW 1029,7 52 43 0,0
14.09.2019 17:00:00 17,0 9,6 19,7 19,7 17,1 16,1 13 7 27 15 W 1030,7 51 21 0,0
14.09.2019 16:00:00 17,4 9,0 19,6 21,4 16,6 16,1 14 8 26 14 W 1031,3 56 57 0,0
14.09.2019 15:00:00 17,6 8,6 21,7 21,1 16,0 16,1 10 5 28 15 WSW 1032,2 45 42 0,0
14.09.2019 14:00:00 18,1 7,9 22,5 21,6 15,4 16,1 16 9 30 16 WSW 1032,8 51 59 0,0
14.09.2019 13:00:00 17,3 8,2 21,5 20,2 14,8 16,1 14 8 23 13 WSW 1033,4 40 52 0,0
14.09.2019 12:00:00 15,7 8,6 16,9 18,1 14,3 16,1 13 7 24 13 WSW 1033,7 40 46 0,0
14.09.2019 11:00:00 15,9 8,9 17,7 16,4 14,0 16,1 8 4 17 9 SW 1034,0 40 52 0,0
14.09.2019 10:00:00 14,0 9,5 13,6 13,9 13,9 16,1 7 4 10 5 SSW 1034,3 40 60 0,0
14.09.2019 09:00:00 10,8 8,4 10,4 11,0 14,0 16,1 4 2 14 8 SW 1034,3 40 60 0,0
14.09.2019 08:00:00 8,1 7,5 7,1 9,5 14,2 16,1 7 4 10 6 SSW 1034,1 30 6 0,0
14.09.2019 07:00:00 7,8 7,1 5,5 9,5 14,5 16,1 7 4 10 5 WSW 1033,9 30 0 0,0
14.09.2019 06:00:00 7,4 6,8 6,1 9,5 14,8 16,1 7 4 9 5 WSW 1033,9 30 0 0,0
14.09.2019 05:00:00 8,0 7,0 5,2 9,8 15,1 16,1 9 5 10 6 W 1034,1 34 0 0,0
14.09.2019 04:00:00 8,2 7,3 4,9 10,2 15,4 16,1 9 5 11 6 W 1034,3 36 0 0,0
14.09.2019 03:00:00 8,4 7,5 5,5 10,7 15,8 16,1 9 5 11 6 W 1034,3 37 0 0,0
14.09.2019 02:00:00 8,8 7,6 5,8 11,2 16,1 16,1 9 5 16 8 W 1034,3 37 0 0,0
14.09.2019 01:00:00 9,2 7,9 7,1 11,7 16,5 16,1 12 6 16 8 W 1034,3 39 0 0,0
14.09.2019 00:00:00 9,1 8,1 6,3 12,1 16,9 16,1 10 5 14 8 W 1034,2 34 0 0,0
13.09.2019 23:00:00 9,7 8,6 6,7 12,8 17,2 16,1 9 5 13 7 W 1033,9 32 0 0,0
13.09.2019 22:00:00 10,3 8,8 7,4 13,7 17,6 16,1 8 4 14 8 W 1033,4 35 0 0,0
13.09.2019 21:00:00 11,4 9,3 9,2 14,8 18,0 16,1 8 4 19 10 W 1033,2 40 0 0,0
13.09.2019 20:00:00 13,2 9,3 11,9 16,2 18,2 16,1 11 6 27 15 WNW 1032,7 43 1 0,0
13.09.2019 19:00:00 14,8 8,8 14,3 17,5 18,3 16,1 14 8 32 18 WNW 1032,0 40 29 0,0
13.09.2019 18:00:00 15,8 7,1 16,0 18,9 18,3 16,1 18 10 35 19 WNW 1031,7 49 55 0,0
13.09.2019 17:00:00 17,1 8,9 20,2 20,2 18,1 16,1 20 11 37 20 WNW 1031,6 37 53 0,0
13.09.2019 16:00:00 17,9 9,5 21,4 21,4 17,7 16,1 21 11 43 23 WNW 1031,4 38 60 0,0
13.09.2019 15:00:00 18,3 8,3 22,6 21,7 17,3 16,1 24 13 48 26 WNW 1030,9 58 58 0,0
13.09.2019 14:00:00 17,3 8,3 19,5 21,1 17,0 16,1 22 12 40 22 WNW 1030,4 40 43 0,0
13.09.2019 13:00:00 16,8 9,5 19,3 20,7 16,6 16,1 24 13 42 23 NW 1029,7 40 36 0,0
13.09.2019 12:00:00 17,6 9,3 20,7 20,1 16,3 16,1 22 12 37 20 WNW 1029,2 40 46 0,0
13.09.2019 11:00:00 16,5 10,5 18,3 18,6 16,1 16,1 22 12 36 19 NW 1028,6 40 39 0,0
13.09.2019 10:00:00 15,6 11,5 15,3 17,4 16,0 16,1 22 12 34 18 NW 1027,2 40 59 0,0
13.09.2019 09:00:00 15,0 13,1 14,5 15,4 16,1 16,1 17 9 30 16 NW 1026,0 40 39 0,0
13.09.2019 08:00:00 14,0 13,2 13,7 15,3 16,1 16,1 14 8 37 20 NW 1025,0 40 0 0,0
13.09.2019 07:00:00 14,8 13,9 14,4 15,8 16,1 16,1 22 12 41 22 NW 1023,6 20 0 1,2
13.09.2019 06:00:00 16,4 15,9 16,1 16,1 16,1 16,1 15 8 37 20 W 1021,8 10 0 0,1
13.09.2019 05:00:00 17,1 16,5 16,7 16,1 16,1 16,1 19 11 36 19 W 1021,4 13 0 0,3
13.09.2019 04:00:00 16,6 16,2 16,3 15,8 16,2 16,1 16 9 36 20 WSW 1021,3 10 0 0,5
13.09.2019 03:00:00 16,0 15,2 15,5 15,5 16,2 16,2 15 8 32 17 SW 1021,6 3,9 0 0,3
13.09.2019 02:00:00 15,7 14,7 15,1 15,4 16,3 16,2 17 9 33 18 SW 1022,4 17 0 0,1
13.09.2019 01:00:00 16,2 13,6 15,9 15,4 16,4 16,2 13 7 24 13 SW 1022,7 30 0 0,0
13.09.2019 00:00:00 16,1 13,0 15,8 15,4 16,6 16,2 11 6 27 15 SW 1023,5 28 0 0,0
12.09.2019 23:00:00 15,7 13,5 15,4 15,5 16,7 16,2 11 6 24 13 SW 1024,0 30 0 0,0
12.09.2019 22:00:00 15,6 13,0 15,3 15,6 16,9 16,2 12 6 24 13 SW 1024,3 30 0 0,0
12.09.2019 21:00:00 15,3 13,0 14,8 15,8 17,2 16,2 11 6 20 11 SW 1024,4 28 0 0,0
12.09.2019 20:00:00 15,8 12,3 15,4 16,6 17,3 16,2 11 6 23 12 WSW 1024,5 34 3 0,0
12.09.2019 19:00:00 16,6 12,5 16,5 17,9 17,3 16,2 11 6 29 16 WSW 1024,5 34 13 0,0
12.09.2019 18:00:00 17,5 12,6 17,2 19,3 17,2 16,2 17 9 40 22 W 1024,5 34 32 0,0
12.09.2019 17:00:00 18,0 12,5 19,0 20,6 16,8 16,2 20 11 41 22 W 1024,5 40 47 0,0
12.09.2019 16:00:00 19,2 11,5 21,4 20,9 16,3 16,2 21 11 45 25 W 1024,5 56 30 0,0
12.09.2019 15:00:00 18,5 12,7 20,4 21,0 15,8 16,2 20 11 43 23 WSW 1024,5 36 24 0,0
12.09.2019 14:00:00 19,5 13,5 22,0 20,0 15,4 16,3 19 10 38 21 WSW 1024,3 25 21 0,0
12.09.2019 13:00:00 18,3 15,0 20,2 19,0 15,1 16,3 15 8 32 17 SW 1024,1 25 13 0,0
12.09.2019 12:00:00 16,8 14,5 16,6 17,8 14,7 16,3 15 8 32 17 SW 1023,9 12 3 0,0
12.09.2019 11:00:00 17,3 14,6 18,2 17,6 14,4 16,3 10 6 29 15 SW 1023,5 25 7 0,0
12.09.2019 10:00:00 16,0 14,7 16,1 15,9 14,2 16,3 11 6 23 12 SW 1023,1 25 17 0,0
12.09.2019 09:00:00 14,1 13,3 14,0 13,7 14,2 16,3 13 7 20 11 SSW 1022,6 25 9 0,0
12.09.2019 08:00:00 12,9 11,7 12,0 12,3 14,2 16,3 12 7 20 11 SW 1022,2 25 5 0,0
12.09.2019 07:00:00 12,8 11,7 11,6 12,1 14,3 16,3 10 5 16 9 SW 1021,7 25 0 0,1
12.09.2019 06:00:00 12,7 11,9 12,1 12,1 14,4 16,3 7 4 14 8 SW 1021,0 25 0 0,0
12.09.2019 05:00:00 11,9 11,6 11,1 11,5 14,6 16,3 8 5 14 7 WSW 1020,7 21 0 0,0
12.09.2019 04:00:00 12,0 11,6 10,2 11,7 14,8 16,3 7 4 19 11 SW 1020,3 19 0 0,0
12.09.2019 03:00:00 12,5 12,0 11,6 12,1 15,0 16,3 9 5 18 10 WSW 1019,8 22 0 0,0
12.09.2019 02:00:00 12,4 12,2 11,0 12,2 15,2 16,3 8 5 16 8 WSW 1019,4 14 0 0,0
12.09.2019 01:00:00 13,1 12,9 11,1 13,0 15,3 16,4 7 4 13 7 WSW 1018,8 8 0 0,0
12.09.2019 00:00:00 13,9 13,7 11,6 13,9 15,4 16,4 9 5 24 13 WSW 1018,1 10 0 0,0
11.09.2019 23:00:00 14,6 14,5 14,4 14,4 15,5 16,4 10 5 30 16 WSW 1017,3 8 0 0,0
11.09.2019 22:00:00 14,1 13,9 14,0 14,3 15,5 16,4 18 10 46 25 SW 1016,9 7 0 1,8
11.09.2019 21:00:00 13,7 13,4 13,5 14,2 15,7 16,4 23 12 45 24 SW 1016,2 3,5 0 0,9
11.09.2019 20:00:00 13,2 12,9 13,1 14,2 15,8 16,4 22 12 48 26 SSW 1016,0 7 0 0,7
11.09.2019 19:00:00 12,9 12,4 12,8 14,4 16,0 16,4 26 14 48 26 SSW 1016,2 3,1 0 1,3
11.09.2019 18:00:00 12,9 12,4 12,9 14,7 16,1 16,4 23 12 58 31 SW 1016,4 2,6 0 3,5
11.09.2019 17:00:00 14,2 12,4 13,6 15,9 16,1 16,4 24 13 50 27 SW 1016,4 11 0 0,0
11.09.2019 16:00:00 15,6 12,8 15,3 16,4 16,0 16,4 22 12 42 23 SW 1016,5 18 0 0,4
11.09.2019 15:00:00 15,8 12,2 14,7 17,2 15,8 16,4 23 12 49 26 SW 1016,6 13 0 0,0
11.09.2019 14:00:00 17,4 11,6 17,8 18,7 15,4 16,4 23 13 53 28 SW 1016,7 29 8 0,0
11.09.2019 13:00:00 17,6 12,2 19,0 19,1 14,9 16,4 23 13 54 29 SW 1016,8 30 35 0,0
11.09.2019 12:00:00 17,4 12,0 18,5 18,9 14,4 16,4 22 12 47 26 SW 1017,1 30 56 0,0
11.09.2019 11:00:00 16,2 12,3 17,1 17,1 14,1 16,4 19 10 33 18 SSW 1017,1 20 58 0,0
11.09.2019 10:00:00 14,4 11,9 13,8 14,5 13,9 16,4 18 10 31 17 SSW 1017,4 15 60 0,0
11.09.2019 09:00:00 12,4 10,6 11,8 12,1 14,0 16,5 16 9 26 14 SSW 1017,5 15 60 0,0
11.09.2019 08:00:00 11,0 10,0 10,2 10,6 14,1 16,5 14 8 23 12 SSW 1017,6 10 38 0,0
11.09.2019 07:00:00 10,7 10,2 9,6 10,5 14,3 16,5 14 8 22 12 SSW 1017,5 12 0 0,0
11.09.2019 06:00:00 10,4 9,7 9,4 10,7 14,5 16,5 11 6 17 9 SSW 1017,6 30 0 0,0
11.09.2019 05:00:00 11,1 10,2 9,8 10,8 14,8 16,5 9 5 15 8 SW 1017,6 34 0 0,0
11.09.2019 04:00:00 10,8 10,2 9,6 11,1 15,0 16,5 9 5 15 8 SW 1017,9 26 0 0,0
11.09.2019 03:00:00 10,9 10,3 9,3 11,3 15,3 16,5 8 4 14 8 SW 1017,8 28 0 0,0
11.09.2019 02:00:00 10,6 10,1 7,9 11,5 15,6 16,5 8 4 11 6 WSW 1017,6 26 0 0,0
11.09.2019 01:00:00 11,4 10,8 9,4 12,0 15,8 16,5 7 4 17 9 WSW 1017,3 40 0 0,0
11.09.2019 00:00:00 11,9 11,1 9,8 12,7 16,1 16,5 10 5 18 10 WSW 1017,3 35 0 0,0
10.09.2019 23:00:00 12,5 11,6 11,1 13,3 16,4 16,5 11 6 18 10 WSW 1016,8 31 0 0,0
10.09.2019 22:00:00 12,9 11,7 11,4 14,0 16,6 16,5 10 6 19 10 W 1016,4 37 0 0,0
10.09.2019 21:00:00 13,3 12,0 11,7 15,0 16,8 16,5 11 6 24 13 W 1015,9 34 0 0,0
10.09.2019 20:00:00 14,7 12,9 14,1 16,2 16,8 16,5 13 7 26 14 W 1015,3 36 0 0,0
10.09.2019 19:00:00 14,8 13,3 14,6 16,8 16,9 16,5 17 9 29 16 W 1015,0 21 0 0,0
10.09.2019 18:00:00 14,8 13,6 14,8 17,3 16,8 16,5 15 8 30 16 W 1014,6 50 0 0,2
10.09.2019 17:00:00 14,8 13,7 15,1 17,8 16,7 16,5 17 9 41 22 W 1014,2 9 0 0,1
10.09.2019 16:00:00 16,1 12,9 16,5 18,6 16,5 16,5 21 12 37 20 W 1013,8 66 0 0,0
10.09.2019 15:00:00 15,8 13,3 15,8 18,5 16,3 16,5 24 13 48 26 WNW 1013,3 38 0 0,0
10.09.2019 14:00:00 16,3 13,8 16,6 18,8 16,0 16,5 16 9 40 21 W 1012,9 59 0 0,1
10.09.2019 13:00:00 14,6 12,5 14,4 18,2 15,7 16,5 20 11 41 22 WNW 1012,7 9 2 0,5
10.09.2019 12:00:00 17,1 13,2 17,3 18,2 15,4 16,6 21 11 41 22 W 1012,1 35 3 0,0
10.09.2019 11:00:00 14,9 13,5 14,9 15,6 15,3 16,6 16 9 32 17 W 1012,1 30 0 0,4
10.09.2019 10:00:00 15,1 13,7 15,3 15,6 15,2 16,6 14 8 25 14 W 1012,1 25 0 0,0
10.09.2019 09:00:00 13,7 13,0 13,9 14,4 15,2 16,6 10 5 17 9 W 1011,8 12 0 0,0
10.09.2019 08:00:00 12,2 11,8 12,2 13,4 15,3 16,6 9 5 14 7 W 1011,7 10 0 0,0
10.09.2019 07:00:00 11,6 11,2 11,5 13,0 15,4 16,6 10 6 16 9 W 1011,6 6 0 0,0
10.09.2019 06:00:00 11,4 10,9 11,4 13,0 15,5 16,6 10 5 18 10 W 1011,6 10 0 0,0
10.09.2019 05:00:00 11,4 11,0 11,2 13,2 15,7 16,6 12 7 18 10 W 1011,6 7 0 0,0
10.09.2019 04:00:00 11,7 11,4 11,5 13,5 15,8 16,6 9 5 16 9 WNW 1011,9 6 0 0,2
10.09.2019 03:00:00 11,9 11,5 11,8 13,7 16,0 16,6 9 5 19 10 NW 1012,0 13 0 0,3
10.09.2019 02:00:00 12,4 12,1 12,3 14,0 16,1 16,6 11 6 18 10 NW 1012,2 4,4 0 1,8
10.09.2019 01:00:00 12,6 12,4 12,6 14,2 16,3 16,6 8 4 15 8 WNW 1012,4 2,0 0 1,3
10.09.2019 00:00:00 12,7 12,5 12,6 14,4 16,5 16,6 9 5 14 8 WNW 1012,5 4,1 0 0,7
09.09.2019 23:00:00 12,8 12,5 12,8 14,6 16,6 16,6 9 5 14 7 WNW 1012,8 2,6 0 1,1
09.09.2019 22:00:00 12,7 12,5 12,6 14,9 16,8 16,6 5 3 12 7 WNW 1013,0 3,3 0 0,9
09.09.2019 21:00:00 12,8 12,3 12,7 15,3 17,0 16,6 6 3 9 5 NNW 1012,9 9 0 0,4
09.09.2019 20:00:00 13,1 12,6 13,0 15,8 17,2 16,6 4 2 16 8 N 1012,9 12 0 1,0
09.09.2019 19:00:00 13,4 12,3 13,5 16,5 17,3 16,6 8 4 24 13 NW 1012,9 9 0 1,9
09.09.2019 18:00:00 15,4 12,3 15,3 17,5 17,3 16,6 6 3 13 7 NE 1012,8 40 0 0,0
09.09.2019 17:00:00 15,5 12,1 16,0 18,2 17,3 16,6 9 5 14 8 E 1012,4 30 0 0,0
09.09.2019 16:00:00 17,0 11,9 17,6 19,3 17,1 16,6 8 4 13 7 N 1012,6 30 0 0,0
09.09.2019 15:00:00 17,2 12,2 18,3 19,9 16,8 16,6 6 3 12 7 NNW 1013,1 30 0 0,0
09.09.2019 14:00:00 18,0 10,7 20,4 20,9 16,2 16,6 5 3 12 7 N 1013,4 30 14 0,0
09.09.2019 13:00:00 18,2 11,5 21,0 21,0 15,6 16,7 5 3 11 6 NNE 1013,5 30 35 0,0
09.09.2019 12:00:00 17,8 11,9 19,1 19,7 15,2 16,7 4 2 9 5 NNW 1014,0 30 42 0,0

tt = Température de l'air
td = dewpoint
tt 5cm = Température de l'air 5cm
tt -5cm = Température de l'air -5cm
tt -20cm = Température de l'air -20cm
tt -100cm = Température de l'air -100cm
ff = Vitesse du vent
fx = gusts
dd = Direction du vent
ppp = reduced air pressure
vv = visibility
sd = Ensoleillement
rr = Quantités de précipitations

stations d'obs. à proximité